Location: Crabtree
(36.2040°N, 82.1040°W)
Time: 20:12:58
(UTC+00:00)

Envisat - Visible Passes

Search period start: 28 September 2023 00:00
Search period end: 08 October 2023 00:00
Orbit: 763 x 764 km, 98.2° (Epoch: 28 September)

Date Brightness Start Highest point End Pass type
(mag) Time Alt. Az. Time Alt. Az. Time Alt. Az.
28 Sep 5.9 07:43:24 10° ENE 07:44:22 11° E 07:44:22 11° E visible
28 Sep 2.8 09:19:00 10° N 09:24:03 72° WNW 09:24:32 66° WSW visible
29 Sep 3.8 08:41:57 10° NNE 08:46:46 48° E 08:46:46 48° E visible
29 Sep 4.4 10:22:04 10° NNW 10:25:25 18° WNW 10:26:56 16° W visible
30 Sep 5.2 08:05:45 10° NE 08:09:00 20° E 08:09:00 20° E visible
30 Sep 3.4 09:43:49 10° N 09:48:32 40° WNW 09:49:10 38° W visible
01 Oct 2.9 09:06:22 10° NNE 09:11:24 86° ENE 09:11:24 86° ENE visible
01 Oct 4.9 10:49:19 10° WNW 10:49:40 10° WNW 10:50:01 10° WNW visible
02 Oct 4.4 08:29:32 10° NNE 08:33:39 35° E 08:33:39 35° E visible
02 Oct 4.1 10:08:58 10° NNW 10:12:56 23° WNW 10:13:48 22° W visible
03 Oct 5.7 07:53:52 10° ENE 07:55:52 14° E 07:55:52 14° E visible
03 Oct 3.0 09:31:03 10° N 09:36:00 53° WNW 09:36:02 53° WNW visible
04 Oct 3.4 08:53:48 10° NNE 08:58:16 59° ENE 08:58:16 59° ENE visible
04 Oct 4.7 10:34:47 10° NW 10:37:14 14° WNW 10:38:25 13° WNW visible
05 Oct 5.0 08:17:14 10° NE 08:20:29 25° ENE 08:20:29 25° ENE visible
05 Oct 3.7 09:56:02 10° N 10:00:25 30° WNW 10:00:39 30° WNW visible
06 Oct 3.0 09:18:20 10° N 09:22:53 65° NNW 09:22:53 65° NNW visible
07 Oct 4.1 08:41:18 10° NNE 08:45:06 41° ENE 08:45:06 41° ENE visible
07 Oct 4.4 10:21:25 10° NNW 10:24:46 18° WNW 10:25:15 18° WNW visible
